McAllen, TX

8:11 AM CST on December 18, 2017 (GMT -0600)
McAllen Miller International

Weather History for KMFE - March, 2013

Change the Weather History Date:

Saturday, March 30, 2013

  Actual Average Record
Temperature  
Mean Temperature 79 °F 74 °F  
Max Temperature 88 °F 85 °F 104 °F (1989)
Min Temperature 70 °F 63 °F 38 °F (2003)
Degree Days  
Heating Degree Days 0 1  
Month to date heating degree days 16 41  
Since 1 July heating degree days 312 574  
Cooling Degree Days 14 9  
Month to date cooling degree days 203 208  
Year to date cooling degree days 452 367  
Growing Degree Days 28 (Base 50)    
Moisture  
Dew Point 65 °F    
Average Humidity 68    
Maximum Humidity 90    
Minimum Humidity 45    
Precipitation  
Precipitation 0.00 in 0.02 in 0.16 in (1965)
Month to date precipitation T 1.00  
Year to date precipitation 0.99 3.16  
Sea Level Pressure  
Sea Level Pressure 30.01 in    
Wind  
Wind Speed 13 mph (SE)    
Max Wind Speed 22 mph    
Max Gust Speed 26 mph    
Visibility 10 miles    
Events      
T = Trace of Precipitation, MM = Missing Value Source: NWS Daily Summary

Daily Weather History Graph

Daily Weather History Graph

Search for Another Location

Airport or City:

Trip Planner

Search our weather history database for the weather conditions in past years. The results will help you decide how hot, cold, wet, or windy it might be!

Date:

Astronomy

Mar. 30, 2013 Rise Set
Actual Time 7:25 AM CDT 7:49 PM CDT
Civil Twilight 7:02 AM CDT 8:12 PM CDT
Nautical Twilight 6:35 AM CDT 8:39 PM CDT
Astronomical Twilight 6:08 AM CDT 9:06 PM CDT
Moon 11:33 PM CDT (3/30) 9:43 AM CDT (3/30)
Length of Visible Light 13h 09m
Length of Day
12h 23m
Waning Gibbous, 86% of the Moon is Illuminated
Mar 30
Waning Gibbous
Apr 2
Last Quarter
Apr 10
New
Apr 18
First Quarter
Apr 25
Full

Hourly Weather History & Observations

Time (CDT) Temp. Heat Index Dew Point Humidity Pressure Visibility Wind Dir Wind Speed Gust Speed Precip Events Conditions
12:53 AM 71.1 °F - 64.0 °F 78% 30.07 in 10.0 mi SE 13.8 mph - N/A   Overcast
1:25 AM 71.6 °F - 64.4 °F 78% 30.07 in 10.0 mi SE 13.8 mph - N/A   Overcast
1:53 AM 71.1 °F - 64.9 °F 81% 30.06 in 10.0 mi SE 13.8 mph - N/A   Overcast
2:53 AM 71.1 °F - 64.9 °F 81% 30.04 in 10.0 mi SE 12.7 mph - N/A   Overcast
3:48 AM 71.6 °F - 64.4 °F 78% 30.03 in 10.0 mi ESE 10.4 mph - N/A   Overcast
3:53 AM 71.1 °F - 64.9 °F 81% 30.03 in 10.0 mi ESE 10.4 mph - N/A   Overcast
4:40 AM 71.6 °F - 64.4 °F 78% 30.02 in 10.0 mi ESE 9.2 mph - N/A   Overcast
4:53 AM 71.1 °F - 64.9 °F 81% 30.01 in 10.0 mi SE 11.5 mph - N/A   Overcast
5:19 AM 69.8 °F - 64.4 °F 83% 30.02 in 10.0 mi SE 9.2 mph - N/A   Overcast
5:53 AM 70.0 °F - 64.9 °F 84% 30.01 in 10.0 mi ESE 8.1 mph - N/A   Overcast
6:53 AM 70.0 °F - 66.0 °F 87% 30.03 in 10.0 mi ESE 6.9 mph - N/A   Overcast
7:53 AM 70.0 °F - 66.0 °F 87% 30.04 in 10.0 mi ESE 8.1 mph - N/A   Overcast
8:53 AM 72.0 °F - 66.9 °F 84% 30.06 in 10.0 mi ESE 6.9 mph - N/A   Overcast
9:24 AM 73.4 °F - 66.2 °F 78% 30.07 in 10.0 mi South 10.4 mph - N/A   Mostly Cloudy
9:53 AM 73.9 °F - 66.0 °F 76% 30.06 in 10.0 mi South 8.1 mph - N/A   Overcast
10:53 AM 75.9 °F - 64.9 °F 69% 30.05 in 10.0 mi South 11.5 mph - N/A   Overcast
11:19 AM 78.8 °F - 66.2 °F 65% 30.05 in 10.0 mi SE 13.8 mph - N/A   Overcast
11:45 AM 78.8 °F - 64.4 °F 61% 30.05 in 10.0 mi SSE 10.4 mph - N/A   Overcast
11:53 AM 79.0 °F - 64.9 °F 62% 30.05 in 10.0 mi SSW 8.1 mph 16.1 mph N/A   Overcast
12:15 PM 82.4 °F 83.9 °F 64.4 °F 54% 30.04 in 10.0 mi SSE 16.1 mph - N/A   Mostly Cloudy
12:53 PM 84.9 °F 85.9 °F 63.0 °F 48% 30.03 in 10.0 mi SSE 12.7 mph 21.9 mph N/A   Scattered Clouds
1:53 PM 84.9 °F 85.9 °F 63.0 °F 48% 30.00 in 10.0 mi South 9.2 mph - N/A   Mostly Cloudy
2:53 PM 86.0 °F 86.8 °F 63.0 °F 46% 29.97 in 10.0 mi SE 15.0 mph 21.9 mph N/A   Mostly Cloudy
3:53 PM 87.1 °F 88.3 °F 64.0 °F 46% 29.94 in 10.0 mi SE 15.0 mph - N/A   Mostly Cloudy
4:53 PM 86.0 °F 87.3 °F 64.0 °F 48% 29.92 in 10.0 mi SE 16.1 mph 19.6 mph N/A   Scattered Clouds
5:53 PM 84.0 °F 85.4 °F 64.0 °F 51% 29.91 in 10.0 mi SSE 15.0 mph - N/A   Clear
6:53 PM 81.0 °F 82.7 °F 64.9 °F 58% 29.91 in 10.0 mi SE 20.7 mph - N/A   Clear
7:53 PM 77.0 °F - 64.9 °F 66% 29.93 in 10.0 mi SSE 19.6 mph 24.2 mph N/A   Clear
8:53 PM 75.0 °F - 64.9 °F 71% 29.94 in 10.0 mi SSE 15.0 mph - N/A   Clear
9:53 PM 73.0 °F - 66.0 °F 79% 29.95 in 10.0 mi SE 15.0 mph - N/A   Clear
10:53 PM 72.0 °F - 66.0 °F 81% 29.96 in 10.0 mi SSE 12.7 mph - N/A   Partly Cloudy
11:11 PM 71.6 °F - 66.2 °F 83% 29.96 in 10.0 mi SE 16.1 mph 20.7 mph N/A   Mostly Cloudy
11:53 PM 72.0 °F - 66.9 °F 84% 29.96 in 10.0 mi SSE 13.8 mph - N/A   Overcast